Location: Dannhausen
(51.8650°N, 10.1026°E)
Time: 01:21:48
(UTC+00:00)

STARLINK-60 - Pass Details

Date: 09 April 2020
Orbit: 388 x 399 km, 53.0° (Epoch: 30 May)

Event Time Altitude Azimuth Distance (km) Brightness Sun altitude
Rises 20:10:42 0° 260° (W) 2,365 7.5 -17.7°
Reaches altitude 10° 20:12:48 10° 262° (W) 1,499 6.4 -17.9°
Maximum altitude 20:16:10 80° 348° (NNW) 428 3.0 -18.3°
Enters shadow 20:17:01 47° 69° (ENE) 559 3.4 -18.4°
